This demonstration page uses our WeatherBlox Daily Observations layout. Learn more.

39.92423, -83.80882

Hourly Observations for September 28, 2017

Temp ( °F °C ) Dew Point ( °F °C ) Humidity (%) Winds ( mph kmh ) Pressure ( in mb ) Visibility ( mi km ) Precip ( " mm )
12:56 am 00:56 Clear 59 15 53 11.7 81 81 NNW 8 13 30.03 1017 10 16.09344 0 0
1:56 am 01:56 Clear 57 13.9 52 11.1 83 83 NNW 10 17 30.03 1017 10 16.09344 0 0
2:56 am 02:56 Clear 56 13.3 50 10 81 81 NNW 5 7 30.03 1017 10 16.09344 0 0
3:56 am 03:56 Clear 55 12.8 50 10 83 83 NNW 5 7 30.03 1017 10 16.09344 0 0
4:56 am 04:56 Clear 54 12.2 50 10 87 87 NNW 6 9 30.06 1018 10 16.09344 0 0
5:56 am 05:56 Clear 54 12.2 49 9.4 83 83 N 8 13 30.06 1018 10 16.09344 0 0
6:56 am 06:56 Clear 53 11.7 49 9.4 86 86 N 8 13 30.09 1019 10 16.09344 0 0
7:56 am 07:56 Sunny 53 11.7 49 9.4 86 86 N 7 11 30.09 1019 10 16.09344 0 0
8:56 am 08:56 Mostly Sunny 56 13.3 50 10 81 81 NNE 8 13 30.12 1020 10 16.09344 0 0
9:56 am 09:56 Mostly Cloudy 59 15 51 10.6 75 75 NE 12 19 30.12 1020 10 16.09344 0 0
10:56 am 10:56 Mostly Sunny 64 17.8 52 11.1 65 65 NE 7 11 30.12 1020 10 16.09344 0 0
11:15 am 11:15 Hazy 64 18 52 11 64 64 NE 9 15 30.15 1021 0.75 1.207008 0 0
11:30 am 11:30 Mostly Sunny 64 18 52 11 64 64 N 7 11 30.15 1021 10 16.09344 0 0
11:56 am 11:56 Sunny 67 19.4 52 11.1 59 59 N 7 11 30.12 1020 10 16.09344 0 0
12:56 pm 12:56 Mostly Cloudy 67 19.4 51 10.6 57 57 N 7 11 30.12 1020 10 16.09344 0 0
1:56 pm 13:56 Mostly Sunny 70 21.1 50 10 49 49 NW 10 17 30.09 1019 10 16.09344 0 0
2:56 pm 14:56 Sunny 70 21.1 47 8.3 44 44 NNE 7 11 30.09 1019 10 16.09344 0 0
3:56 pm 15:56 Sunny 71 21.7 47 8.3 42 42 NNE 9 15 30.09 1019 10 16.09344 0 0
4:56 pm 16:56 Sunny 71 21.7 46 7.8 41 41 N 10 17 30.09 1019 10 16.09344 0 0
5:56 pm 17:56 Sunny 69 20.6 46 7.8 44 44 N 9 15 30.09 1019 10 16.09344 0 0
6:56 pm 18:56 Sunny 66 18.9 45 7.2 47 47 N 8 13 30.09 1019 10 16.09344 0 0
7:56 pm 19:56 Clear 62 16.7 46 7.8 56 56 NNW 6 9 30.09 1019 10 16.09344 0 0
8:56 pm 20:56 Clear 57 13.9 47 8.3 69 69 N 7 11 30.12 1020 10 16.09344 0 0
9:56 pm 21:56 Clear 56 13.3 47 8.3 72 72 N 6 9 30.12 1020 10 16.09344 0 0
10:56 pm 22:56 Clear 54 12.2 47 8.3 77 77 N 3 6 30.12 1020 10 16.09344 0 0
11:56 pm 23:56 Clear 53 11.7 46 7.8 77 77 Calm 30.12 1020 10 16.09344 0 0

Powered by AerisWeather